Salem, OR

12:07 AM PST on November 20, 2017 (GMT -0800)
McNary

Weather History for KSLE - May, 2013

Change the Weather History Date:

Sunday, May 12, 2013

  Actual Average Record
Temperature  
Mean Temperature 64 °F 56 °F  
Max Temperature 71 °F 67 °F 88 °F (1949)
Min Temperature 57 °F 44 °F 30 °F (1985)
Degree Days  
Heating Degree Days 1 10  
Month to date heating degree days 31 131  
Since 1 July heating degree days 4020 4374  
Cooling Degree Days 0 0  
Month to date cooling degree days 10 0  
Year to date cooling degree days 10 0  
Growing Degree Days 15 (Base 50)    
Moisture  
Dew Point 55 °F    
Average Humidity 75    
Maximum Humidity 93    
Minimum Humidity 57    
Precipitation  
Precipitation T in 0.07 in 0.68 in (1945)
Month to date precipitation T 0.86  
Year to date precipitation 7.65 18.18  
Snow  
Snow 0.00 in - - ()
Month to date snowfall 0.0  
Snow Depth 0.00 in    
Sea Level Pressure  
Sea Level Pressure 30.10 in    
Wind  
Wind Speed 6 mph (SSW)    
Max Wind Speed 14 mph    
Max Gust Speed 16 mph    
Visibility 10 miles    
Events Rain    
T = Trace of Precipitation, MM = Missing Value Source: NWS Daily Summary

Daily Weather History Graph

Daily Weather History Graph

Search for Another Location

Airport or City:

Trip Planner

Search our weather history database for the weather conditions in past years. The results will help you decide how hot, cold, wet, or windy it might be!

Date:

Astronomy

May. 12, 2013 Rise Set
Actual Time 5:46 AM PDT 8:31 PM PDT
Civil Twilight 5:12 AM PDT 9:05 PM PDT
Nautical Twilight 4:29 AM PDT 9:47 PM PDT
Astronomical Twilight 3:40 AM PDT 10:37 PM PDT
Moon 7:44 AM PDT (5/12) 11:03 PM PDT (5/12)
Length of Visible Light 15h 52m
Length of Day
14h 44m
Waxing Crescent, 7% of the Moon is Illuminated
May 12
Waxing Crescent
May 17
First Quarter
May 24
Full
May 31
Last Quarter
Jun 8
New

Hourly Weather History & Observations

Time (PDT) Temp. Dew Point Humidity Pressure Visibility Wind Dir Wind Speed Gust Speed Precip Events Conditions
12:56 AM 63.0 °F 55.9 °F 78% 30.08 in 10.0 mi Calm Calm - N/A   Clear
1:56 AM 60.1 °F 55.9 °F 86% 30.09 in 10.0 mi SE 5.8 mph - N/A   Clear
2:56 AM 59.0 °F 55.9 °F 90% 30.09 in 10.0 mi SSE 3.5 mph - N/A   Clear
3:56 AM 57.0 °F 55.0 °F 93% 30.09 in 10.0 mi SSE 3.5 mph - N/A   Clear
4:56 AM 59.0 °F 57.0 °F 93% 30.08 in 10.0 mi SSE 5.8 mph - N/A   Overcast
5:56 AM 60.1 °F 55.9 °F 86% 30.08 in 10.0 mi SSE 4.6 mph - N/A   Overcast
6:56 AM 61.0 °F 55.9 °F 83% 30.10 in 10.0 mi SW 3.5 mph - N/A   Overcast
7:56 AM 63.0 °F 55.9 °F 78% 30.11 in 10.0 mi SE 3.5 mph - N/A   Overcast
8:56 AM 63.0 °F 53.1 °F 70% 30.12 in 10.0 mi WSW 4.6 mph - 0.00 in   Overcast
9:56 AM 64.9 °F 55.0 °F 70% 30.12 in 10.0 mi SSW 6.9 mph - N/A   Overcast
10:56 AM 66.9 °F 57.0 °F 70% 30.12 in 10.0 mi ESE 6.9 mph - N/A   Overcast
11:56 AM 70.0 °F 57.9 °F 65% 30.12 in 10.0 mi South 9.2 mph - N/A   Overcast
12:56 PM 70.0 °F 57.9 °F 65% 30.11 in 10.0 mi Variable 4.6 mph - N/A   Overcast
1:56 PM 71.1 °F 57.9 °F 63% 30.10 in 10.0 mi Variable 3.5 mph - N/A   Overcast
2:56 PM 70.0 °F 57.0 °F 63% 30.10 in 10.0 mi West 9.2 mph - N/A   Overcast
3:56 PM 70.0 °F 53.1 °F 55% 30.10 in 10.0 mi West 8.1 mph - N/A   Overcast
4:56 PM 68.0 °F 54.0 °F 61% 30.09 in 10.0 mi West 10.4 mph - N/A   Overcast
5:56 PM 66.0 °F 52.0 °F 60% 30.09 in 10.0 mi West 8.1 mph - N/A   Overcast
6:56 PM 64.0 °F 52.0 °F 65% 30.08 in 10.0 mi WNW 4.6 mph - N/A   Overcast
7:56 PM 63.0 °F 53.1 °F 70% 30.07 in 10.0 mi WNW 3.5 mph - N/A   Overcast
8:56 PM 61.0 °F 54.0 °F 78% 30.08 in 10.0 mi Calm Calm - N/A   Overcast
9:56 PM 60.1 °F 55.0 °F 83% 30.10 in 10.0 mi WSW 3.5 mph - 0.00 in Rain Light Rain
10:56 PM 59.0 °F 55.9 °F 90% 30.09 in 10.0 mi SSW 3.5 mph - 0.02 in Rain Light Rain
11:34 PM 59.0 °F 55.4 °F 88% 30.09 in 10.0 mi Calm Calm - 0.00 in   Overcast
11:56 PM 59.0 °F 57.0 °F 93% 30.09 in 9.0 mi Calm Calm - 0.00 in Rain Light Rain